This is the latest recevied weather packets stored in our database for station/object S50ME-11. If no packets are shown the sender has not sent any weather packets the latest 10 day(s).
| Time | Temp. | Humidity | Pressure | Rain* | Wind** | Luminosity | Snow |
|---|---|---|---|---|---|---|---|
| 1777314635 | 18.33° C | 37% | 1021.5 hPa | - | - | - | - |
| 1777314630 | 18.33° C | 37% | 1021.5 hPa | - | - | - | - |
| 1777313735 | 18.89° C | 37% | 1020.1 hPa | - | - | - | - |
| 1777313730 | 18.89° C | 37% | 1020.1 hPa | - | - | - | - |
| 1777312845 | 19.44° C | 37% | 1020.3 hPa | - | - | - | - |
| 1777312839 | 19.44° C | 37% | 1020.3 hPa | - | - | - | - |
| 1777311943 | 20° C | 36% | 1020 hPa | - | - | - | - |
| 1777311938 | 20° C | 36% | 1020 hPa | - | - | - | - |
| 1777311045 | 21.11° C | 36% | 1019.9 hPa | - | - | - | - |
| 1777311038 | 21.11° C | 36% | 1019.9 hPa | - | - | - | - |
| 1777310140 | 21.67° C | 36% | 1019.8 hPa | - | - | - | - |
| 1777310137 | 21.67° C | 36% | 1019.8 hPa | - | - | - | - |
| 1777309240 | 22.22° C | 36% | 1019.8 hPa | - | - | - | - |
| 1777309237 | 22.22° C | 36% | 1019.8 hPa | - | - | - | - |
| 1777308339 | 22.78° C | 36% | 1019.6 hPa | - | - | - | - |
| 1777308336 | 22.78° C | 36% | 1019.6 hPa | - | - | - | - |
| 1777307439 | 22.78° C | 35% | 1019.8 hPa | - | - | - | - |
| 1777307436 | 22.78° C | 35% | 1019.8 hPa | - | - | - | - |
| 1777306539 | 23.33° C | 35% | 1019.7 hPa | - | - | - | - |
| 1777306536 | 23.33° C | 35% | 1019.7 hPa | - | - | - | - |
| 1777305638 | 23.33° C | 35% | 1019.4 hPa | - | - | - | - |
| 1777305635 | 23.33° C | 35% | 1019.4 hPa | - | - | - | - |
| 1777304738 | 23.89° C | 35% | 1019.4 hPa | - | - | - | - |
| 1777304736 | 23.89° C | 35% | 1019.4 hPa | - | - | - | - |
| 1777303838 | 23.89° C | 35% | 1019.6 hPa | - | - | - | - |
* Rain since midnight (hover to see other rain measurements)
** Current wind speed in m/s (hover to see current wind gust speed)